{"data":{"norad_id":22826,"epoch":"2026-05-25T02:54:13.524768Z","epoch_age_seconds":57852,"freshness":"FRESH","line1":"1 22826U 93061D   26145.12098987  .00000061  00000+0  39953-4 0  9990","line2":"2 22826  98.6833 212.4568 0009608 145.5525 214.6283 14.31361097704010","mean_motion":14.31361097,"eccentricity":0.0009608,"inclination_deg":98.6833,"raan_deg":212.4568,"arg_perigee_deg":145.5525,"mean_anomaly_deg":214.6283,"bstar":3.9953e-5,"rev_number":70401,"period_min":100.60354462743,"perigee_km":780.3003934437,"apogee_km":794.06927588119,"semimajor_km":7165.3218346624,"source":"CELESTRAK","updated_at":"2026-05-25T13:38:23.253684Z"}}